[[{"header":{"parameterUnit":"m.s-1","parameterCategory":1,"la1":30.2991,"la2":30.254,"lo1":-89.0895,"lo2":-89.0444,"dy":0.0017,"dx":0.0017,"nx":28,"ny":28,"refTime":"2025-12-05T03:00:00:Z","depth":0,"parameterNumber":2,"parameterNumberName":"U-component_of_WINDS"},"data":[0,0,0,0,0,0,0,0,0,0,0,0,0,0,0,0,0,0,0,0,0,0,0,0,0,0,0,0,0,0,0,0,0,0,0,0,0,0,0,0,0,0,0,0,0,0,0,0,0,0,0,0,0,0,0,0,0,0,-0.3563,-0.3563,0,-0.3553,-0.3553,-0.3553,-0.3537,-0.3537,-0.3537,-0.3536,-0.3526,-0.3526,-0.3526,0,0,0,0,0,0,0,0,0,0,0,0,0,-0.3569,-0.3569,-0.3563,-0.3563,-0.3563,-0.3553,-0.3553,-0.3553,-0.3537,-0.3537,-0.3537,-0.3536,-0.3526,-0.3526,-0.3526,0,0,0,0,0,0,0,0,0,0,0,0,0,-0.3564,-0.3569,-0.3563,-0.3554,-0.3553,-0.3553,-0.3553,-0.3553,-0.3537,-0.3537,-0.3536,-0.3536,-0.3526,-0.3526,-0.3526,-0.3534,0,0,-0.3526,-0.3526,0,0,0,0,0,0,0,0,-0.3564,-0.3563,-0.3556,-0.3555,-0.3554,-0.3546,-0.3551,-0.3547,-0.3537,-0.3543,-0.3536,-0.3536,-0.3533,-0.3532,-0.3531,-0.3534,-0.3533,-0.3526,-0.3526,-0.3526,-0.3526,0,0,0,0,0,0,0,-0.3564,-0.3564,-0.3559,-0.3556,-0.3554,-0.355,-0.3549,-0.355,-0.3541,-0.3543,-0.3542,-0.3541,-0.3532,-0.3531,-0.3531,-0.3533,-0.3526,-0.3526,-0.3526,-0.3526,-0.3541,-0.3542,0,0,0,0,0,0,-0.3566,-0.3564,-0.356,-0.3559,-0.3558,-0.3551,-0.3549,-0.3549,-0.3541,-0.3539,-0.3541,-0.354,-0.3532,-0.3531,-0.3531,-0.354,-0.3526,-0.3526,-0.3526,-0.3541,-0.3541,-0.3542,0,0,0,0,0,0,-0.3566,-0.3566,-0.356,-0.3561,-0.356,-0.3551,-0.3551,-0.3549,-0.3548,-0.3539,-0.3537,-0.3542,-0.3531,-0.3531,-0.3533,-0.3539,-0.3526,-0.3526,-0.354,-0.3541,-0.3542,-0.3558,0,0,0,0,0,0,-0.3567,-0.3566,-0.3569,-0.3562,-0.356,-0.3563,-0.3551,-0.3549,-0.3548,-0.3546,-0.354,-0.3538,-0.3531,-0.3533,-0.3533,-0.3539,-0.3526,-0.354,-0.3541,-0.3541,-0.3557,-0.3559,-0.3561,0,0,0,0,0,-0.3567,-0.3574,-0.357,-0.3569,-0.3564,-0.3564,-0.3563,-0.3555,-0.3548,-0.3552,-0.3546,-0.3538,-0.3538,-0.3534,-0.3534,-0.3539,-0.3539,-0.354,-0.3541,-0.3556,-0.3559,-0.3561,0,0,0,0,0,0,-0.3583,-0.3573,-0.3568,-0.3573,-0.3569,-0.3561,-0.3565,-0.3558,-0.3556,-0.3554,-0.3544,-0.3543,-0.3547,-0.3543,-0.3538,-0.3546,-0.3538,-0.3539,-0.3549,-0.3551,-0.3553,-0.3555,-0.3526,0,0,0,0,0,-0.3588,-0.3588,-0.3579,-0.3585,-0.3583,-0.3574,-0.3574,-0.3567,-0.3563,-0.3562,-0.3556,-0.3552,-0.3551,-0.3551,-0.355,-0.3556,-0.3554,-0.356,-0.3562,-0.3563,-0.3565,-0.3567,-0.357,-0.3545,-0.3545,-0.3545,0,0,-0.3596,-0.3591,-0.3592,-0.3588,-0.3584,-0.3585,-0.3573,-0.3574,-0.3575,-0.3562,-0.3564,-0.356,-0.3555,-0.3559,-0.3561,-0.3556,-0.3571,-0.3565,-0.3566,-0.3566,-0.3569,-0.3571,-0.3573,-0.3546,-0.3545,-0.3545,0,0,-0.3613,-0.3609,-0.3613,-0.3609,-0.3604,-0.3598,-0.3599,-0.3591,-0.3588,-0.359,-0.358,-0.358,-0.3579,-0.3576,-0.3574,-0.3588,-0.3581,-0.3588,-0.3599,-0.3602,-0.3604,-0.3606,-0.3611,-0.3613,-0.3589,-0.3589,-0.3589,0,-0.3625,-0.3625,-0.3616,-0.3618,-0.3616,-0.3604,-0.3608,-0.3605,-0.36,-0.3599,-0.3593,-0.3591,-0.3587,-0.3591,-0.3594,-0.3593,-0.3594,-0.3589,-0.3605,-0.3606,-0.3608,-0.3613,-0.3615,-0.359,-0.359,-0.359,-0.359,0,-0.364,-0.3641,-0.3645,-0.3639,-0.3638,-0.3641,-0.3632,-0.3632,-0.3625,-0.362,-0.3622,-0.3616,-0.3613,-0.3614,-0.3608,-0.3616,-0.3613,-0.3607,-0.3598,-0.3611,-0.3616,-0.3618,-0.3592,-0.3591,-0.3591,-0.3591,0,0,-0.3668,-0.3657,-0.3658,-0.3656,-0.3648,-0.3649,-0.3651,-0.3648,-0.3648,-0.3644,-0.3646,-0.3645,-0.3638,-0.3636,-0.3629,-0.3632,-0.3644,-0.3625,-0.3624,-0.3629,-0.3653,-0.3659,-0.3661,-0.3639,-0.3639,-0.3639,-0.3654,0,-0.3683,-0.3686,-0.3677,-0.3683,-0.3683,-0.3671,-0.3673,-0.3669,-0.3664,-0.3663,-0.3657,-0.3656,-0.3648,-0.3646,-0.3648,-0.3642,-0.3649,-0.3641,-0.364,-0.364,-0.3643,-0.3664,-0.367,-0.3684,-0.3655,-0.3656,-0.3656,0,-0.3702,-0.3699,-0.3705,-0.3697,-0.3696,-0.3698,-0.3695,-0.3694,-0.3689,-0.3685,-0.3682,-0.3674,-0.3676,-0.3666,-0.3668,-0.3663,-0.3662,-0.3659,-0.3659,-0.3659,-0.365,-0.3665,-0.3688,-0.369,-0.3658,-0.3658,-0.3658,0,-0.3722,-0.3719,-0.3722,-0.372,-0.3711,-0.3713,-0.3709,-0.3703,-0.3702,-0.3699,-0.3698,-0.3695,-0.3693,-0.3691,-0.3682,-0.3676,-0.3685,-0.3675,-0.3682,-0.3682,-0.3685,-0.3685,-0.3708,-0.3683,-0.3683,-0.3683,-0.3683,0,-0.374,-0.3744,-0.3731,-0.3733,-0.3737,-0.3726,-0.373,-0.3725,-0.372,-0.3721,-0.371,-0.3711,-0.3699,-0.3698,-0.3691,-0.3694,-0.3693,-0.369,-0.3688,-0.3691,-0.3692,-0.3691,-0.369,-0.3684,-0.3683,-0.3683,-0.3683,0,-0.3764,-0.3755,-0.3757,-0.3748,-0.3746,-0.3749,-0.3741,-0.3743,-0.3736,-0.3737,-0.3737,-0.3727,-0.3725,-0.3716,-0.3713,-0.3708,-0.3713,-0.3709,-0.3715,-0.3714,-0.3721,-0.3721,-0.3746,-0.3749,-0.3721,-0.3722,-0.3722,0,-0.3777,-0.3779,-0.377,-0.377,-0.3767,-0.3766,-0.3765,-0.3754,-0.3753,-0.3747,-0.3749,-0.3746,-0.3744,-0.3742,-0.3735,-0.3732,-0.3728,-0.3737,-0.3728,-0.3731,-0.3729,-0.3729,-0.3729,-0.3739,-0.374,-0.374,-0.374,0,-0.38,-0.3796,-0.3794,-0.3791,-0.3789,-0.3786,-0.3783,-0.3783,-0.3771,-0.377,-0.3769,-0.3767,-0.3763,-0.3761,-0.3757,-0.3753,-0.3745,-0.3743,-0.3745,-0.3748,-0.3752,-0.375,-0.3721,-0.3743,-0.3743,-0.3742,-0.3742,-0.3742,-0.3819,-0.3821,-0.3815,-0.3813,-0.3809,-0.3806,-0.3807,-0.38,-0.3799,-0.3795,-0.3789,-0.3788,-0.3782,-0.3775,-0.3772,-0.3771,-0.3766,-0.3768,-0.3769,-0.377,-0.3771,-0.3751,-0.377,-0.377,-0.377,-0.377,-0.377,0,-0.3843,-0.3838,-0.3837,-0.3832,-0.383,-0.3822,-0.3818,-0.3817,-0.3817,-0.3812,-0.381,-0.3808,-0.3805,-0.3797,-0.3794,-0.3795,-0.3791,-0.3795,-0.3795,-0.3794,-0.3776,-0.3775,-0.3798,-0.3798,-0.3798,-0.3798,-0.3798,-0.3798,-0.3855,-0.3858,-0.3852,-0.3853,-0.3848,-0.3847,-0.3845,-0.3842,-0.3838,-0.3836,-0.3834,-0.3829,-0.3823,-0.3819,-0.3816,-0.3814,-0.3813,-0.3818,-0.3814,-0.3798,-0.3795,-0.3793,-0.3792,-0.3818,-0.3818,-0.3833,-0.3833,-0.3833]},{"header":{"parameterUnit":"m.s-1","parameterCategory":1,"la1":30.2991,"la2":30.254,"lo1":-89.0895,"lo2":-89.0444,"dy":0.0017,"dx":0.0017,"nx":28,"ny":28,"refTime":"2025-12-05T03:00:00:Z","depth":0,"parameterNumber":3,"parameterNumberName":"V-component_of_WINDS"},"data":[0,0,0,0,0,0,0,0,0,0,0,0,0,0,0,0,0,0,0,0,0,0,0,0,0,0,0,0,0,0,0,0,0,0,0,0,0,0,0,0,0,0,0,0,0,0,0,0,0,0,0,0,0,0,0,0,0,0,-4.6353,-4.6354,0,-4.6435,-4.6435,-4.6436,-4.6383,-4.638,-4.6378,-4.6376,-4.6455,-4.646,-4.6464,0,0,0,0,0,0,0,0,0,0,0,0,0,-4.6149,-4.6153,-4.6353,-4.6354,-4.6355,-4.6434,-4.6435,-4.6437,-4.6383,-4.638,-4.6377,-4.6374,-4.6454,-4.6459,-4.6464,0,0,0,0,0,0,0,0,0,0,0,0,0,-4.6234,-4.6154,-4.6353,-4.6338,-4.6338,-4.6434,-4.6436,-4.6437,-4.6384,-4.638,-4.6376,-4.6373,-4.6452,-4.6459,-4.6465,-4.658,0,0,-4.6485,-4.6488,0,0,0,0,0,0,0,0,-4.623,-4.6242,-4.6339,-4.6339,-4.6339,-4.6395,-4.6393,-4.6485,-4.6385,-4.6366,-4.6375,-4.6371,-4.6438,-4.6445,-4.6469,-4.6583,-4.6587,-4.6486,-4.649,-4.6493,-4.6495,0,0,0,0,0,0,0,-4.6224,-4.6238,-4.6385,-4.6341,-4.6341,-4.6326,-4.6335,-4.641,-4.6422,-4.6368,-4.6364,-4.6374,-4.6437,-4.6462,-4.647,-4.6588,-4.6486,-4.6492,-4.6496,-4.6498,-4.6801,-4.6805,0,0,0,0,0,0,-4.6219,-4.6233,-4.6383,-4.6388,-4.6274,-4.6333,-4.6342,-4.6381,-4.6421,-4.6423,-4.6377,-4.6372,-4.6453,-4.6463,-4.6473,-4.661,-4.6493,-4.6499,-4.6503,-4.6797,-4.6802,-4.6807,0,0,0,0,0,0,-4.6215,-4.6233,-4.6379,-4.631,-4.6327,-4.6341,-4.6384,-4.6384,-4.6409,-4.6428,-4.643,-4.6402,-4.645,-4.6463,-4.6554,-4.6612,-4.6502,-4.6508,-4.6793,-4.6799,-4.6804,-4.6886,0,0,0,0,0,0,-4.621,-4.6232,-4.6276,-4.6311,-4.6331,-4.646,-4.6388,-4.6388,-4.6421,-4.6415,-4.6451,-4.6454,-4.6449,-4.6544,-4.6561,-4.6619,-4.6513,-4.6787,-4.6795,-4.6803,-4.6878,-4.6894,-4.6908,0,0,0,0,0,-4.6202,-4.6295,-4.6279,-4.6297,-4.6387,-4.6464,-4.6475,-4.6468,-4.6426,-4.6471,-4.6483,-4.6452,-4.6603,-4.6554,-4.6572,-4.6634,-4.6784,-4.6793,-4.6802,-4.6871,-4.6891,-4.6907,0,0,0,0,0,0,-4.6265,-4.6299,-4.6282,-4.6388,-4.6424,-4.6455,-4.651,-4.6489,-4.6536,-4.6527,-4.6516,-4.6525,-4.662,-4.6635,-4.658,-4.6747,-4.6687,-4.67,-4.6733,-4.6752,-4.6766,-4.6761,-4.6519,0,0,0,0,0,-4.6292,-4.6352,-4.6378,-4.647,-4.6489,-4.6497,-4.653,-4.6522,-4.6557,-4.6572,-4.659,-4.6625,-4.668,-4.6717,-4.6768,-4.688,-4.6887,-4.6931,-4.6946,-4.6958,-4.6969,-4.703,-4.705,-4.6837,-4.6837,-4.6837,0,0,-4.6346,-4.6373,-4.6411,-4.6483,-4.6509,-4.6572,-4.6509,-4.6577,-4.6623,-4.6581,-4.6669,-4.6684,-4.6722,-4.6823,-4.6869,-4.6839,-4.703,-4.697,-4.6979,-4.6984,-4.7042,-4.7062,-4.708,-4.6843,-4.6842,-4.6841,0,0,-4.6478,-4.6504,-4.6584,-4.6612,-4.6654,-4.6659,-4.6678,-4.6712,-4.6721,-4.6809,-4.6779,-4.6833,-4.6928,-4.6957,-4.6984,-4.7128,-4.7102,-4.7145,-4.7222,-4.7282,-4.7298,-4.7313,-4.7365,-4.7384,-4.7156,-4.7156,-4.7157,0,-4.6541,-4.6635,-4.6627,-4.6699,-4.6731,-4.6697,-4.6778,-4.6805,-4.6861,-4.6884,-4.685,-4.697,-4.6993,-4.7101,-4.7137,-4.7159,-4.7181,-4.7141,-4.7297,-4.7312,-4.7325,-4.7375,-4.7395,-4.7161,-4.7161,-4.716,-4.716,0,-4.671,-4.6776,-4.6835,-4.6892,-4.693,-4.7006,-4.7009,-4.7049,-4.7038,-4.7046,-4.7136,-4.7163,-4.722,-4.7245,-4.7234,-4.7352,-4.7333,-4.7298,-4.7238,-4.7351,-4.7397,-4.7416,-4.7169,-4.7167,-4.7165,-4.7164,0,0,-4.6883,-4.6936,-4.6958,-4.6984,-4.7027,-4.7077,-4.7151,-4.7208,-4.7243,-4.7283,-4.7344,-4.7427,-4.7395,-4.7426,-4.7418,-4.747,-4.7584,-4.7429,-4.743,-4.7458,-4.7716,-4.7743,-4.7765,-4.7567,-4.757,-4.7573,-4.7713,0,-4.7018,-4.7149,-4.7145,-4.7266,-4.7326,-4.7296,-4.736,-4.7393,-4.7403,-4.7455,-4.7465,-4.7524,-4.7478,-4.7497,-4.7547,-4.7559,-4.7636,-4.7549,-4.7624,-4.7626,-4.7616,-4.7789,-4.7817,-4.7948,-4.7731,-4.7734,-4.7737,0,-4.7193,-4.7241,-4.7369,-4.7405,-4.743,-4.7488,-4.754,-4.7591,-4.7628,-4.7631,-4.7667,-4.7651,-4.7725,-4.7662,-4.7764,-4.7706,-4.7736,-4.7747,-4.7752,-4.7759,-4.7689,-4.7801,-4.7989,-4.8009,-4.7765,-4.7763,-4.7761,0,-4.7308,-4.7403,-4.7493,-4.7515,-4.7559,-4.7601,-4.7621,-4.7655,-4.769,-4.7735,-4.7758,-4.7811,-4.784,-4.7882,-4.788,-4.7835,-4.7984,-4.7921,-4.7989,-4.7989,-4.8022,-4.802,-4.8218,-4.8041,-4.804,-4.804,-4.8039,0,-4.7459,-4.7539,-4.7545,-4.76,-4.7688,-4.7682,-4.7769,-4.7784,-4.7815,-4.7872,-4.7848,-4.7901,-4.7896,-4.795,-4.7949,-4.8034,-4.8047,-4.8052,-4.8051,-4.8055,-4.8054,-4.8075,-4.8066,-4.8045,-4.8044,-4.8043,-4.8042,0,-4.7602,-4.7609,-4.7705,-4.7739,-4.775,-4.7813,-4.7842,-4.7894,-4.7902,-4.7974,-4.7991,-4.8003,-4.8066,-4.8069,-4.814,-4.8139,-4.8243,-4.8231,-4.8231,-4.8229,-4.8297,-4.8291,-4.8516,-4.8546,-4.8348,-4.835,-4.8352,0,-4.7698,-4.7759,-4.7801,-4.7838,-4.7861,-4.7921,-4.7957,-4.7953,-4.7992,-4.804,-4.8086,-4.8146,-4.8195,-4.8296,-4.8311,-4.8365,-4.8355,-4.843,-4.8363,-4.8365,-4.8357,-4.8354,-4.836,-4.8443,-4.8446,-4.8447,-4.8449,0,-4.7869,-4.787,-4.7924,-4.798,-4.8024,-4.8068,-4.8108,-4.8139,-4.814,-4.8185,-4.8249,-4.8287,-4.8361,-4.8421,-4.8475,-4.8494,-4.8472,-4.847,-4.8489,-4.8493,-4.8491,-4.8494,-4.8268,-4.8465,-4.8463,-4.8462,-4.8461,-4.846,-4.7992,-4.8045,-4.8083,-4.8144,-4.8175,-4.8213,-4.8264,-4.8279,-4.8333,-4.8394,-4.8389,-4.846,-4.8496,-4.8566,-4.859,-4.8646,-4.862,-4.8647,-4.8654,-4.866,-4.8668,-4.8482,-4.8655,-4.8655,-4.8654,-4.8654,-4.8654,0,-4.8162,-4.8185,-4.8242,-4.83,-4.8348,-4.8324,-4.8368,-4.841,-4.8474,-4.851,-4.8558,-4.8633,-4.8692,-4.8712,-4.8769,-4.8809,-4.8801,-4.8825,-4.8822,-4.8827,-4.8688,-4.8666,-4.8831,-4.8831,-4.8831,-4.8831,-4.8831,-4.883,-4.8256,-4.8345,-4.8351,-4.8455,-4.8477,-4.8548,-4.8575,-4.8611,-4.864,-4.8725,-4.8774,-4.8787,-4.8817,-4.8876,-4.8929,-4.8934,-4.8956,-4.8984,-4.8984,-4.8854,-4.8836,-4.8819,-4.8799,-4.8989,-4.8989,-4.9119,-4.912,-4.9121]}]]